sat.trackr.live / text

‹ back to catalog

ONEWEB-0546

NORAD 56048 · 2023-043C

PAYLOAD ACTIVE UNKNOWN

§ Identity

Operator
Country
UK
Launch date
2023-03-26
Launch site
SRILR
Launch vehicle
Mass (kg)
RCS (m²)

Purposes: comms

External: N2YO · Heavens-Above · Gunter

§ Orbital elements

Epoch: 2026-05-25T05:23:18.210912Z

Period
109.37 min
Inclination
87.9106°
Eccentricity
0.0002476
Mean motion
13.16593194 rev/d
Perigee alt
1,195.9 km
Apogee alt
1,199.6 km
Semi-major
7,575.9 km
B*
6.9846e-5
RAAN
233.3325°
Arg perigee
113.3660°
Mean anomaly
246.7732°
Rev number
15,594

§ Raw data

ONEWEB-05461 56048U 23043C   26145.22451633  .00000040  00000+0  69846-4 0  99992 56048  87.9106 233.3325 0002476 113.3660 246.7732 13.16593194155943

JSON: /api/v1/satellites/56048 · /tle

For live sub-satellite position, see the globe view (requires WebGL).

§ Visibility from observer

Set your observer location to see the next 7 days of passes ≥ 10°. The values pass through the URL so the page stays shareable.

No JS? Fill the form by hand. The geolocation button needs JavaScript.